Regional Weather Roundup
Issued by NWS

Home | Current Version | Previous Version | Graphics & Text | Print | Product List | Glossary On
Versions: 1 2 3 4 5 6 7 8 9 10 11 12 13 14 15 16 17 18 19 20 21 22 23 24 25 26 27 28 29 30 31 32 33 34 35 36 37 38 39 40 41 42 43 44 45 46 47 48 49 50
000
ASUS45 KABQ 271510
RWRNM
NEW MEXICO REGIONAL WEATHER ROUNDUP
NATIONAL WEATHER SERVICE ALBUQUERQUE NM
900 AM MDT TUE JUN 27 2017

NOTE: "FAIR" MEANS FEW OR NO CLOUDS BELOW 12,000 FEET AGL WITH NO
       SIGNIFICANT WEATHER OR OBSTRUCTIONS TO VISION.

      THIS PRODUCT IS RELEASED AS TWO VERSIONS.  ONE VERSION NEAR
      THE TOP OF THE HOUR CONTAINING PRELIMINARY DATA FROM ALBUQUERQUE
      AND OTHER STATIONS.  A FINAL VERSION WITH ADDITIONAL DATA IS
      ISSUED ABOUT 10 MINUTES AFTER THE HOUR.

NMZ501-503-504-510>518-271600-
NORTHWEST PLATEAU/NORTHCENTRAL MOUNTAINS

CITY           SKY/WX    TMP DP  RH WIND       PRES   REMARKS
FARMINGTON     FAIR      74  44  34 E10       30.13S
LOS ALAMOS     FAIR      67  44  43 S7        30.31S
SANTA FE       FAIR      70  47  43 S7        30.25F
TAOS           FAIR      66  39  37 S7        30.32S
ANGEL FIRE     FAIR      55  47  76 CALM      30.37F

$$
NMZ402-403-502-505>509-271600-
WESTCENTRAL MOUNTAINS/SOUTHWEST MOUNTAINS

CITY           SKY/WX    TMP DP  RH WIND       PRES   REMARKS
GALLUP         FAIR      76  39  26 SW12      30.23S
GRANTS         FAIR      69  46  44 SE12G17   30.28S
SILVER CITY    FAIR      72  53  51 SE5       30.26R

$$
NMZ407-409-411-412-271600-
SOUTHERN DESERTS

CITY           SKY/WX    TMP DP  RH WIND       PRES   REMARKS
DEMING         FAIR      78  56  46 E14       30.16S
LAS CRUCES     FAIR      74  57  54 W3        30.20S
HOLLOMAN AFB   FAIR      80  55  42 CALM      30.18F
ALAMOGORDO     FAIR      75  52  43 CALM      30.18F
T OR C         FAIR      74  53  48 SW12      30.19S

$$
NMZ519>523-271600-
CENTRAL VALLEYS/CENTRAL HIGHLANDS

CITY           SKY/WX    TMP DP  RH WIND       PRES   REMARKS
ALBUQUERQUE    FAIR      70  49  47 SW3       30.22R
DOUBLE EAGLE   PTSUNNY   72  50  46 SE7       30.24S
MORIARTY ARPT  FAIR      66  55  69 S8        30.27F
CLINES CORNERS FAIR      66  46  48 SW20      30.29F
BELEN          FAIR      74  45  35 SW12      30.20S
SOCORRO        FAIR      74  48  40 SE13      30.19S

$$
NMZ524>526-539-540-271600-
SOUTHCENTRAL MOUNTAINS

CITY           SKY/WX    TMP DP  RH WIND       PRES   REMARKS
RUIDOSO        FAIR      64  50  59 W3        30.34S

$$
NMZ527>531-271600-
NORTHEAST HIGHLANDS/NORTHEAST PLAINS

CITY           SKY/WX    TMP DP  RH WIND       PRES   REMARKS
LAS VEGAS      FAIR      68  45  43 S18       30.25F
RATON          FAIR      66  54  65 SE5       30.19F
CLAYTON        FAIR      72  55  55 SW15G24   30.12S

$$
NMZ532>537-271600-
EASTCENTRAL PLAINS

CITY           SKY/WX    TMP DP  RH WIND       PRES   REMARKS
SANTA ROSA     FAIR      74  51  43 SW10      30.15F
TUCUMCARI      FAIR      79  60  52 SW18      30.10F
CANNON AFB     FAIR      71  69  90 SW12      30.18S
CLOVIS AIRPORT NOT AVBL

$$
NMZ028-029-538-271600-
SOUTHEAST PLAINS

CITY           SKY/WX    TMP DP  RH WIND       PRES   REMARKS
ROSWELL        FAIR      75  59  57 S10       30.12F
ARTESIA        FAIR      75  61  60 S9        30.14F
CARLSBAD       FAIR      73  66  78 S5        30.12S
HOBBS          SUNNY     73  64  73 S7        30.16S


$$




USA.gov is the U.S. government's official web portal to all federal, state and local government web resources and services.